User: anonymous   Login
Location: Unspecified
(0.0000°N, 0.0000°E)
Time: 17:02:36
(UTC+00:00)
Language:

Triad OI-1X - Orbit

View from above orbital plane
View from above orbital plane
View from above satellite
View from above satellite

Ground track
Ground track

The orbit data is extracted from the following two-line orbital elements,

1  6173U 72069A   18174.67742571 +.00000118 +00000-0 +27366-4 0  9999
2  6173 089.8892 225.0048 0050430 265.8958 250.2552 14.48892805408326
Epoch (UTC): 23 June 2018 16:15:29
Eccentricity: 0.0050430
inclination: 89.8892°
perigee height: 693 km
apogee height: 765 km
right ascension of ascending node: 225.0048°
argument of perigee: 265.8958°
revolutions per day: 14.48892805
mean anomaly at epoch: 250.2552°
orbit number at epoch: 40832

The dashed part of the orbit path shows where the satellite is in the earth's shadow,  

DLR